Location: Pardubice
(50.0330°N, 15.7830°E)
Time: 09:28:33
(UTC+02:00)

deb Explorer IX - All Passes

Search period start: 07 October 2024 00:00
Search period end: 17 October 2024 00:00
Orbit: 504 x 826 km, 38.7° (Epoch: 06 October)

Date Brightness Start Highest point End Pass type
(mag) Time Alt. Az. Time Alt. Az. Time Alt. Az.
07 Oct - 12:24:01 10° SSW 12:26:29 15° SSE 12:29:02 10° SE daylight
07 Oct - 14:05:57 10° SW 14:08:51 18° S 14:11:55 10° SE daylight
07 Oct - 15:49:57 10° SW 15:51:13 11° SSW 15:52:31 10° S daylight
08 Oct - 11:13:48 10° S 11:15:03 11° SSE 11:16:21 10° SE daylight
08 Oct - 12:54:33 10° SW 12:57:19 18° S 13:00:13 10° SE daylight
08 Oct - 14:37:21 10° SW 14:39:42 14° SSW 14:42:08 10° SSE daylight
09 Oct - 11:43:12 10° SSW 11:45:34 15° S 11:48:01 10° SE daylight
09 Oct - 13:25:17 10° SW 13:27:54 16° S 13:30:39 10° SSE daylight
10 Oct - 10:32:14 10° S 10:33:38 12° SSE 10:35:02 10° SE daylight
10 Oct - 12:13:16 10° SW 12:15:52 17° S 12:18:34 10° SE daylight
10 Oct - 13:56:21 10° SW 13:58:10 13° SSW 14:00:02 10° S daylight
11 Oct - 11:01:17 10° SSW 11:03:37 15° S 11:05:58 10° SE daylight
11 Oct - 12:43:32 10° SW 12:45:53 15° S 12:48:19 10° SSE daylight
12 Oct - 09:49:35 10° S 09:51:08 12° SSE 09:52:41 10° SE daylight
12 Oct - 11:30:53 10° SW 11:33:21 16° S 11:35:52 10° SE daylight
12 Oct - 13:14:23 10° SW 13:15:34 11° SSW 13:16:46 10° S daylight
13 Oct - 10:18:16 10° SSW 10:20:34 15° S 10:22:53 10° SE daylight
13 Oct - 12:00:42 10° SW 12:02:48 14° S 12:04:56 10° SSE daylight
14 Oct - 09:05:51 10° SSW 09:07:35 13° SSE 09:09:17 10° SE daylight
14 Oct - 10:47:23 10° SW 10:49:45 16° S 10:52:09 10° SE daylight
15 Oct - 09:34:07 10° SSW 09:36:28 15° S 09:38:48 10° SE daylight
15 Oct - 11:16:45 10° SW 11:18:38 13° SSW 11:20:33 10° SSE daylight
16 Oct - 08:20:59 10° SSW 08:22:56 13° SSE 08:24:51 10° SE daylight
16 Oct - 10:02:44 10° SW 10:05:06 15° S 10:07:26 10° SSE daylight
